SCP
0 0 0 0 0 0 0 0 0 0 0 1 1 1 1 2 2 2 2 2 2 3 3 3 3 3 3 2 2 2 2 2 2 2 2 2 2 2 2 2 2 2 2 2
0 0 0 0 0 0 0 0 0 0 0 1 1 2 2 2 2 2 2 2 2 3 3 2 2 2 3 3 3 3 3 3 2 2 2 2 2 2 2 2 2 2 2 2
0 0 0 0 0 0 0 0 0 0 0 1 1 2 2 2 2 2 2 2 2 2 2 2 1 1 2 3 4 4 4 3 3 2 2 2 2 2 1 1 1 2 2 2
0 0 0 0 0 0 0 0 0 0 0 0 1 1 2 2 3 3 3 3 2 2 2 1 1 1 1 2 2 3 3 3 2 2 2 2 2 1 1 1 1 1 1 1
0 0 0 0 0 0 0 0 0 0 0 0 0 1 1 2 3 4 4 3 3 2 2 1 1 1 1 1 1 1 2 2 1 1 2 2 2 2 1 1 1 1 1 1
0 0 0 0 0 0 0 0 0 0 0 0 0 0 1 2 3 4 4 3 2 2 1 1 1 1 0 0 0 1 1 1 1 1 1 1 2 2 2 2 1 1 1 1
0 0 0 0 0 0 0 0 0 0 0 0 0 0 0 1 2 4 4 3 2 1 1 1 1 1 0 0 0 0 0 0 0 0 1 1 1 2 2 1 1 1 1 1
0 0 0 0 0 0 0 0 0 0 0 0 0 0 1 1 2 3 3 3 2 1 0 0 1 0 0 0 0 0 0 0 0 0 1 1 1 1 1 1 1 0 0 0
0 0 0 0 0 0 0 0 0 0 0 0 0 1 1 1 2 2 3 3 2 1 0 0 0 0 0 0 0 0 0 0 0 0 1 0 0 0 1 0 0 0 0 0
0 0 0 0 0 0 0 0 0 0 0 0 0 1 1 1 2 2 2 3 2 1 0 0 0 0 0 0 0 0 0 0 0 0 0 0 0 0 0 0 0 0 0 0
0 0 0 0 0 0 0 0 0 0 0 0 0 0 1 1 1 1 2 2 2 1 0 0 0 0 0 0 0 0 0 0 0 0 0 0 0 0 0 0 0 0 0 0
0 0 0 0 0 0 0 0 0 0 0 0 0 0 1 1 1 1 2 2 1 0 0 0 0 0 0 0 0 0 0 0 0 0 0 0 0 0 0 0 0 0 0 0
0 0 0 0 0 0 0 0 0 0 0 0 0 0 1 1 1 1 1 1 1 0 0 0 0 0 0 0 0 0 0 0 0 0 0 0 0 0 0 0 0 0 0 0
0 0 0 0 0 0 0 0 0 0 0 0 0 0 1 1 1 1 1 1 0 0 0 0 0 0 0 0 0 0 0 0 0 0 0 0 0 0 0 0 0 0 0 0
0 0 0 0 0 0 0 0 0 0 0 0 0 1 1 1 1 1 1 0 0 0 0 0 0 0 0 0 0 0 0 0 0 0 0 0 0 0 0 0 0 0 0 0
0 0 0 1 1 0 0 0 0 0 0 0 1 1 1 1 1 1 1 1 1 0 0 0 0 0 0 0 0 0 0 0 0 0 0 0 0 0 0 0 0 0 0 0
0 0 0 0 0 0 0 1 0 0 0 0 1 1 1 1 1 0 1 1 1 0 0 0 0 0 0 0 0 0 0 0 0 0 0 0 0 0 0 0 0 0 0 0
0 0 0 0 0 0 0 0 0 0 0 0 0 1 1 1 0 0 0 0 0 0 0 0 0 0 0 0 0 0 0 0 0 0 0 0 0 0 0 0 0 0 0 0
0 0 0 0 0 0 0 1 1 1 1 1 0 0 0 0 0 0 0 0 0 0 0 0 0 0 0 0 0 0 0 0 0 0 0 0 0 0 0 0 0 0 0 0
0 0 0 0 0 0 0 1 1 1 1 0 0 0 0 0 0 0 0 0 0 0 0 0 0 0 0 0 0 0 0 0 0 0 0 0 0 0 0 0 0 0 0 0
0 0 0 0 0 0 0 1 1 1 1 0 0 0 0 0 0 0 0 0 0 0 0 0 0 0 0 0 0 0 0 0 0 0 0 0 0 0 0 0 0 0 0 0
0 0 0 0 0 0 0 1 1 1 0 0 0 0 0 0 0 0 0 0 0 0 0 0 0 0 0 0 0 0 0 0 0 0 0 0 0 0 0 0 0 0 0 0
0 0 0 0 0 0 0 0 0 0 0 0 0 0 0 0 0 0 0 0 0 0 0 0 0 0 0 0 0 0 0 0 0 0 0 0 0 0 0 0 0 0 0 0
0 0 0 0 0 0 0 0 0 0 0 0 0 0 0 0 0 0 0 0 0 0 0 0 0 0 0 0 0 0 0 0 0 0 0 0 0 0 0 0 0 0 0 0
0 0 0 0 0 0 0 0 0 0 0 0 0 0 0 0 0 0 0 0 0 0 0 0 0 0 0 0 0 0 0 0 0 0 0 0 0 0 0 0 0 0 0 0
0 0 0 0 0 0 0 0 0 0 0 0 0 0 0 0 0 0 0 0 0 0 0 0 0 0 0 0 0 0 0 0 0 0 0 0 0 0 0 0 0 0 0 0
Wind_Speed
1 3 3 6 4 5 4 3 4 5 4 6 7 9 9 9 10 11 10 11 11 9 8 8 7 7 7 6 6 5 4 3 2 2 2 2 2 2 2 2 3 3 3 3
4 4 10 6 5 5 5 4 3 2 1 6 6 6 6 8 10 12 12 11 11 10 9 8 7 7 7 6 6 6 5 4 4 2 1 1 2 2 2 2 3 3 4 4
6 9 6 5 6 5 3 4 3 2 2 5 7 3 2 4 6 8 10 10 10 11 10 8 8 7 6 6 5 5 5 5 5 4 3 3 3 3 3 3 2 3 3 4
6 8 4 3 4 3 3 3 5 5 4 1 4 3 2 4 6 7 9 9 9 9 9 8 8 7 6 5 5 6 6 6 5 5 4 4 3 2 2 1 2 3 4 4
5 3 1 3 5 4 5 2 4 4 5 3 3 4 3 4 6 8 9 10 9 9 10 9 8 7 6 5 5 5 6 6 6 5 4 4 4 2 2 2 3 3 3 4
6 4 3 4 3 3 3 5 7 6 6 2 2 3 4 4 8 9 9 10 11 10 9 9 8 8 6 5 5 5 6 6 5 6 5 5 4 4 4 3 3 2 2 3
6 5 3 0 2 4 5 7 5 6 4 2 2 2 4 4 5 10 12 11 10 10 9 9 8 7 6 5 4 4 5 5 5 5 5 5 4 4 4 2 2 2 2 3
1 5 4 1 2 2 1 8 7 4 3 3 2 1 3 0 5 9 11 11 11 10 8 8 8 7 6 5 4 4 4 4 4 4 4 4 4 3 2 2 2 2 2 2
3 4 4 1 2 4 2 2 6 7 3 1 2 2 2 4 7 9 11 11 10 9 9 9 8 7 6 5 5 4 4 4 4 4 4 4 4 3 3 3 3 2 2 2
5 1 4 3 4 3 4 4 5 5 4 1 2 3 4 6 8 9 10 10 9 9 9 8 8 7 6 5 4 4 4 4 4 4 4 4 4 3 3 3 4 3 3 3
3 3 3 4 2 1 3 2 4 4 5 6 3 5 5 10 10 10 9 9 10 9 9 8 7 7 6 5 5 5 4 4 3 4 4 4 3 3 4 4 3 3 3 4
1 5 0 3 3 1 3 2 4 4 2 4 4 5 3 7 8 10 10 10 10 10 9 8 7 7 6 5 5 4 3 3 3 3 3 3 3 4 4 4 3 3 4 4
3 6 3 6 7 5 2 1 3 5 4 3 3 3 2 6 7 8 10 11 11 11 10 8 7 7 6 5 4 4 3 3 2 3 3 3 3 3 3 3 3 3 4 4
4 4 5 5 5 2 2 2 1 4 3 2 4 5 3 6 8 8 10 11 10 10 10 9 7 6 6 5 4 4 3 2 2 3 3 3 2 2 2 3 3 4 4 4
5 3 1 1 1 2 2 4 3 1 3 5 5 6 7 8 9 10 11 11 11 10 9 9 8 6 6 5 4 3 3 2 2 3 2 2 2 2 3 4 4 4 4 4
4 3 3 3 3 3 4 6 5 4 2 3 5 2 3 6 7 9 10 12 11 10 9 9 8 7 6 6 5 4 3 2 3 3 1 1 2 2 2 3 3 4 4 4
2 3 3 2 3 3 3 3 3 2 2 4 4 4 8 8 8 10 10 11 11 10 10 9 8 7 6 5 5 4 3 2 2 2 2 2 3 3 2 3 3 4 4 4
3 3 2 1 4 2 3 1 3 4 4 3 5 7 9 8 6 5 7 10 10 10 9 8 7 6 5 4 4 4 3 3 3 2 2 2 2 2 2 3 3 3 3 3
5 5 3 2 1 1 3 3 1 3 3 2 8 9 9 9 8 4 4 8 9 9 8 8 7 6 5 5 5 5 3 3 3 2 2 2 2 3 2 2 2 2 2 2
3 5 4 2 2 1 4 5 2 5 2 0 7 10 10 7 4 4 6 9 9 9 8 7 7 6 6 5 5 5 3 3 2 2 2 2 2 2 2 2 1 1 1 1
3 3 3 2 1 1 4 5 2 3 4 2 5 8 8 4 5 8 10 9 9 9 8 8 8 6 5 5 5 5 3 3 2 2 2 2 2 2 1 2 1 1 2 2
2 2 1 2 2 3 5 3 2 3 2 3 4 5 7 8 9 11 11 11 10 9 8 8 7 5 4 5 6 5 3 2 3 3 3 2 2 1 2 2 2 2 2 2
1 3 4 3 4 4 1 1 2 4 5 3 4 7 10 10 10 11 10 10 9 9 8 7 7 6 4 4 5 5 3 3 4 3 2 2 3 3 2 2 2 2 2 2
2 1 3 2 0 0 1 2 2 4 4 5 7 9 10 10 11 10 10 8 8 7 7 6 7 6 4 4 4 4 4 4 4 3 2 2 2 2 3 3 2 2 2 2
2 1 3 2 1 2 3 2 4 5 7 8 8 8 10 12 11 10 9 8 7 7 6 6 7 6 5 4 4 4 3 4 4 2 1 1 1 1 2 2 2 1 0 1
1 3 4 3 4 4 3 2 5 7 7 8 9 8 8 10 10 9 8 7 7 8 6 6 6 6 5 5 4 3 3 4 4 2 1 1 1 1 1 1 2 3 1 1
Wind_Direction
316 59 258 244 212 209 227 233 240 240 209 130 140 144 163 158 141 141 140 138 134 129 118 108 98 89 82 71 65 56 53 36 54 73 76 75 66 60 49 51 54 51 44 44
16 272 245 247 269 260 247 249 258 301 140 123 125 134 150 149 154 155 151 145 141 131 118 109 97 84 78 74 68 57 47 37 38 47 59 83 93 75 65 52 51 51 47 42
213 245 249 230 252 248 252 201 172 150 55 84 105 68 99 118 121 137 143 144 144 141 133 125 110 94 82 69 65 66 48 41 38 43 60 63 53 45 39 36 30 27 43 44
245 254 256 248 244 194 253 214 152 139 112 95 117 149 235 158 135 146 150 149 147 137 131 126 115 102 93 82 69 61 52 43 35 39 66 79 81 73 39 35 41 28 34 33
264 257 253 256 247 196 214 167 113 113 118 83 41 123 246 154 168 178 165 153 143 138 135 128 122 115 103 89 75 63 55 45 37 41 55 73 72 65 50 46 45 33 22 18
264 264 213 228 256 192 149 69 51 56 75 77 241 148 227 200 198 177 162 148 139 137 133 124 116 110 98 85 74 66 61 47 39 44 50 64 73 68 59 46 41 28 13 6
324 318 308 332 18 4 75 80 38 12 23 253 262 133 240 227 182 169 159 146 138 139 136 129 122 114 107 98 84 71 69 52 41 49 49 54 65 70 69 55 47 36 18 5
348 307 300 341 160 186 152 131 150 181 208 272 351 220 279 232 134 140 141 142 140 139 137 131 126 122 119 111 96 81 75 56 44 54 52 47 52 60 59 48 47 41 24 359
177 268 288 271 140 136 127 160 167 136 128 92 294 292 336 104 122 135 140 142 145 143 137 130 125 123 122 114 104 94 81 60 55 65 62 53 47 56 59 50 43 33 13 7
155 234 306 336 46 30 142 157 92 108 133 197 253 236 216 184 173 156 150 151 146 136 128 124 123 122 118 114 106 94 85 72 68 68 63 63 49 49 50 49 40 30 18 19
129 136 325 17 47 298 14 49 99 113 144 152 208 256 223 188 175 164 160 152 143 135 130 128 127 124 118 107 101 95 84 75 73 70 64 60 49 44 43 40 32 31 26 24
89 114 10 277 271 235 136 139 129 133 203 159 162 261 295 160 155 149 147 142 137 133 129 128 126 121 115 107 102 98 90 86 83 80 69 63 56 50 46 38 29 34 33 27
72 96 62 351 346 1 35 65 124 128 122 139 151 252 24 116 127 138 139 139 139 134 131 127 123 123 120 116 111 105 97 91 81 80 75 64 57 55 42 29 27 34 38 32
85 96 146 185 227 271 327 344 67 112 129 169 183 174 160 147 142 142 141 140 139 138 138 134 129 127 126 126 122 118 111 98 88 82 75 62 51 46 36 35 36 37 41 42
72 79 46 245 298 23 356 350 359 87 167 172 187 169 185 177 161 153 147 143 142 145 144 139 136 135 134 131 129 126 116 101 97 88 73 51 48 46 41 41 40 40 41 45
52 71 35 1 16 33 35 19 24 39 58 114 122 136 167 142 132 141 150 152 155 154 150 143 141 139 141 141 140 130 119 113 101 95 85 56 55 53 48 48 45 48 44 42
40 74 59 333 327 38 30 357 36 54 77 141 166 175 141 135 149 157 155 153 154 151 149 150 149 146 146 146 141 137 130 114 98 90 72 66 64 63 47 55 55 48 44 47
128 95 104 34 27 57 255 292 98 95 60 85 107 132 142 143 143 140 146 146 144 145 144 144 140 139 137 134 129 124 116 112 101 86 72 74 83 67 53 60 54 41 41 45
148 135 113 102 80 323 322 331 351 110 45 75 119 126 121 115 94 84 125 136 141 142 140 139 139 135 131 130 130 119 111 107 98 87 85 76 82 77 64 57 45 35 49 39
79 103 110 111 119 200 273 304 299 101 69 289 135 142 142 129 130 174 147 129 126 125 128 129 126 122 125 130 127 118 117 105 102 104 100 87 85 83 72 55 35 30 58 49
35 53 88 122 140 255 288 312 15 108 216 196 152 151 153 159 167 147 134 125 127 127 127 126 124 126 135 135 125 122 120 126 136 115 98 85 79 82 83 50 29 44 55 49
123 104 121 121 113 260 310 14 87 197 168 140 140 141 133 120 118 125 129 131 131 128 129 128 128 131 137 134 128 128 138 147 120 102 89 79 69 54 71 56 32 38 55 54
88 173 164 161 198 232 260 140 172 144 131 135 131 133 128 124 128 130 133 135 136 137 136 134 135 134 135 138 136 138 155 138 116 100 83 71 61 45 48 59 51 43 50 63
338 81 103 86 339 117 71 82 90 116 125 126 129 133 131 130 134 133 136 138 138 136 137 136 136 138 145 147 142 145 143 132 122 119 100 78 66 47 35 42 57 74 69 76
271 63 85 90 169 60 36 79 110 104 109 113 118 127 135 133 137 139 141 143 143 139 140 141 146 150 155 149 147 151 143 132 133 137 131 115 102 93 59 46 47 86 102 185
269 158 149 198 207 159 189 174 130 117 124 131 127 123 133 139 142 141 143 144 142 142 142 144 148 151 155 152 157 167 160 147 141 142 152 165 157 147 135 95 17 14 26 41